Location: Shepherdstown, WV
(39.4326°N, 77.8042°W)
Time: 06:31:50
(UTC-04:00)

SR - Pass Details

Date: 10 August 2021
Orbit: 581 x 874 km, 66.7° (Epoch: 24 September)

Event Time Altitude Azimuth Distance (km) Brightness Sun altitude
Rises 12:42:16 0° 343° (NNW) 3,069 ? 64.8°
Reaches altitude 10° 12:45:18 10° 1° (N) 2,091 ? 65.0°
Maximum altitude 12:48:39 19° 47° (NE) 1,517 ? 65.2°
Drops below altitude 10° 12:51:51 10° 93° (E) 1,975 ? 65.3°
Sets 12:54:36 0° 111° (ESE) 2,840 ? 65.4°
